NOAA 16 DEB

Satellite information

Favourite Embed

Satellite Type and Status

DEBRISIN ORBIT

Key statistics

Satellite NOAA 16 DEB at a glance.

Uptime

8997

Days in orbit

Revolutions

≈ 14.2

Per day

Orbit

SSO

Sun Synchronous Orbit

Inclination

98.6

Latest

Satellite identification and parameters

Extended collection of information and parameters for NOAA 16 DEB.

Object identification

Identified? True

Debris? True

Object name: NOAA 16 DEB

International designator: 2000-055NM

Object number (NORAD): 41537

Object ID (CCSDS): 41537

Country: UNITED STATES OF AMERICA (US)

Current information (Y/N): Y

RCS size: SMALL

Orbital parameters

Period: 101.276 minutes

Inclination: 98.6312 deg

SMA: 7197.213 km

Apoapsis: 822.29 km

Periapsis: 815.867 km

RAAN: 194.0897 deg

Eccentricy: 0.0004462

Argument of periapsis: 55.3772 deg

Mean anomaly: 304.7826 deg

Mean motion: 14.21857952 rev/day

Mean motion (dot): 0.00002747 rev/day2

B* drag term: 0.0012659 1/REarth

Two-line elements (TLE)

Creation date: May 7, 2025, 3:14 a.m.

Reference frame: TEME

Reference center: EARTH

Epoch: May 6, 2025, 10:48 a.m. UTC

TLE line 0: 0 NOAA 16 DEB

TLE line 1: 1 41537U 00055NM 25126.45017919 .00002747 00000-0 12659-2 0 9997

TLE line 2: 2 41537 98.6312 194.0897 0004462 55.3772 304.7826 14.21857952479783

Live tracking on map

Real-time ground track for satellite NOAA 16 DEB.

In-orbit conjunctions

A list of the most updated potential collisions computed for object NOAA 16 DEB.

Target Orbit TCA Probability of collision Miss distance Type
THOR ABLESTAR DEB LEO 2025-02-03 02:11:03 0.0001146302 111.0 (m) DEBRIS
COSMOS 2251 DEB LEO 2024-11-09 14:00:35 0.0003783483 351.0 (m) DEBRIS

Associated space launch

The NOAA K, L and M POES satellites begin the fifth generation of improved environmental monitoring in support of NOAA missions. The instrument payload has significant improvements and additions/deletions. The instrument changes have effected the spacecraft subsystems and data formats.

NOAA 16 DEB was lifted into orbit during the mission ‘Titan II SLV | NOAA 16’, on board a Titan II SLV space rocket.

The launch took place on Sept. 21, 2000, 10:22 a.m. from Space Launch Complex 4W.

For more information about the launch, click the button.

Launch to space Titan II SLV | NOAA 16
Titan II SLV | NOAA 16

Agency: N/A

Status: Launch Successful

Launch date: Sept. 21, 2000, 10:22 a.m. UTC

Rocket: Titan II SLV

Launch pad: Space Launch Complex 4W

Location: Vandenberg SFB, CA, USA

...

Latest news about this satellite

There are no fresh news available about this satellite. Check back as we update our databases every day.


Newsletter sign-up

Weekly statistics, charts and insights to help you stay on top of the space industry.